AAL2580 TAPA-KMIA

Flight info

Callsign AAL2580
Flight time 3h 8m
Altitude 38000
Route ELOPO Y290 SLUGO Y355 RENAH DCT MUVOD BR55V ZQA VIICE2
Aircraft B738/M-SDE2E3FGHIRWXY/LB1

Departure

Time 2026-04-26 18:28
Airport V. C. Bird International Airport (TAPA)

Arrival

Time 2026-04-26 21:36
Airport Miami International Airport (KMIA)
Time Latitude Longitude Altitude Speed Heading
2026-04-26 18:01 17.14067 -61.79098 62 ft 0 kts 328°
2026-04-26 18:19 17.14050 -61.79086 56 ft 4 kts 323°
2026-04-26 18:19 17.14029 -61.79068 58 ft 4 kts 313°
2026-04-26 18:20 17.14013 -61.79046 58 ft 4 kts 291°
2026-04-26 18:20 17.14011 -61.79023 60 ft 2 kts 241°
2026-04-26 18:20 17.14011 -61.79022 59 ft 1 kts 240°
2026-04-26 18:23 17.14004 -61.79034 60 ft 4 kts 237°
2026-04-26 18:23 17.13977 -61.79078 62 ft 9 kts 237°
2026-04-26 18:24 17.13916 -61.79120 62 ft 12 kts 198°
2026-04-26 18:24 17.13855 -61.79178 59 ft 13 kts 234°
2026-04-26 18:24 17.13804 -61.79259 61 ft 14 kts 237°
2026-04-26 18:24 17.13740 -61.79334 63 ft 12 kts 191°
2026-04-26 18:25 17.13659 -61.79311 67 ft 12 kts 186°
2026-04-26 18:25 17.13606 -61.79375 63 ft 12 kts 243°
2026-04-26 18:25 17.13565 -61.79449 63 ft 12 kts 237°
2026-04-26 18:25 17.13519 -61.79526 68 ft 14 kts 238°
2026-04-26 18:26 17.13463 -61.79624 66 ft 17 kts 239°
2026-04-26 18:26 17.13393 -61.79740 60 ft 20 kts 237°
2026-04-26 18:26 17.13310 -61.79878 62 ft 24 kts 238°
2026-04-26 18:26 17.13220 -61.80033 59 ft 25 kts 239°
2026-04-26 18:27 17.13130 -61.80135 64 ft 10 kts 224°
2026-04-26 18:27 17.13158 -61.80172 62 ft 9 kts 28°
2026-04-26 18:27 17.13179 -61.80108 58 ft 10 kts 71°
2026-04-26 18:27 17.13214 -61.80047 58 ft 11 kts 57°
2026-04-26 18:28 17.13350 -61.79827 65 ft 75 kts 58°
2026-04-26 18:28 17.13766 -61.79115 67 ft 151 kts 59°
2026-04-26 18:28 17.14382 -61.78060 531 ft 182 kts 57°
2026-04-26 18:28 17.15149 -61.76989 1479 ft 193 kts 57°
2026-04-26 18:29 17.15971 -61.75814 2388 ft 199 kts 57°
2026-04-26 18:29 17.16795 -61.74690 3540 ft 192 kts 48°
2026-04-26 18:29 17.18039 -61.74089 4127 ft 216 kts
2026-04-26 18:29 17.19544 -61.74525 4313 ft 241 kts 323°
2026-04-26 18:30 17.20697 -61.75839 4554 ft 258 kts 303°
2026-04-26 18:30 17.21660 -61.77452 5030 ft 267 kts 299°
2026-04-26 18:30 17.22624 -61.79202 5376 ft 285 kts 298°
2026-04-26 18:30 17.23614 -61.81024 6149 ft 289 kts 298°
2026-04-26 18:31 17.24607 -61.82846 6998 ft 289 kts 298°
2026-04-26 18:31 17.25612 -61.84675 7757 ft 293 kts 298°
2026-04-26 18:31 17.26641 -61.86537 8528 ft 295 kts 299°
2026-04-26 18:31 17.27679 -61.88401 9282 ft 299 kts 299°
2026-04-26 18:32 17.28733 -61.90286 10044 ft 300 kts 299°
2026-04-26 18:32 17.29796 -61.92203 10545 ft 313 kts 299°
2026-04-26 18:32 17.30933 -61.94247 10728 ft 335 kts 299°
2026-04-26 18:32 17.32142 -61.96417 10890 ft 354 kts 299°
2026-04-26 18:33 17.33422 -61.98710 11063 ft 372 kts 299°
2026-04-26 18:33 17.34743 -62.01074 11478 ft 380 kts 299°
2026-04-26 18:33 17.36086 -62.03473 12036 ft 383 kts 299°
2026-04-26 18:33 17.37418 -62.05854 12727 ft 382 kts 299°
2026-04-26 18:34 17.38766 -62.08264 13367 ft 384 kts 298°
2026-04-26 18:34 17.40114 -62.10676 13959 ft 386 kts 298°
2026-04-26 18:34 17.41473 -62.13112 14493 ft 389 kts 298°
2026-04-26 18:34 17.42840 -62.15561 15020 ft 391 kts 298°
2026-04-26 18:35 17.44211 -62.18019 15517 ft 394 kts 298°
2026-04-26 18:35 17.45589 -62.20491 16005 ft 397 kts 298°
2026-04-26 18:35 17.46990 -62.23004 16499 ft 399 kts 298°
2026-04-26 18:35 17.48390 -62.25518 16955 ft 401 kts 298°
2026-04-26 18:36 17.49800 -62.28047 17433 ft 404 kts 298°
2026-04-26 18:36 17.51220 -62.30597 17872 ft 406 kts 298°
2026-04-26 18:36 17.52647 -62.33162 18307 ft 409 kts 298°
2026-04-26 18:36 17.54081 -62.35738 18696 ft 411 kts 298°
2026-04-26 18:37 17.55524 -62.38333 19095 ft 414 kts 298°
2026-04-26 18:37 17.56980 -62.40954 19431 ft 417 kts 297°
2026-04-26 18:37 17.58427 -62.43557 19801 ft 419 kts 297°
2026-04-26 18:37 17.59914 -62.46235 20176 ft 422 kts 297°
2026-04-26 18:38 17.61394 -62.48900 20518 ft 424 kts 297°
2026-04-26 18:38 17.62882 -62.51581 20855 ft 426 kts 297°
2026-04-26 18:38 17.64361 -62.54245 21162 ft 429 kts 297°
2026-04-26 18:38 17.65932 -62.56915 21481 ft 432 kts 300°
2026-04-26 18:39 17.67639 -62.59525 21786 ft 435 kts 302°
2026-04-26 18:39 17.69394 -62.62122 22075 ft 438 kts 302°
2026-04-26 18:39 17.71176 -62.64734 22357 ft 440 kts 302°
2026-04-26 18:39 17.72955 -62.67349 22666 ft 442 kts 302°
2026-04-26 18:40 17.74738 -62.69983 22935 ft 443 kts 301°
2026-04-26 18:40 17.76520 -62.72630 23193 ft 445 kts 301°
2026-04-26 18:40 17.78307 -62.75297 23419 ft 448 kts 301°
2026-04-26 18:40 17.80098 -62.77977 23653 ft 450 kts 301°
2026-04-26 18:41 17.81896 -62.80671 23900 ft 451 kts 301°
2026-04-26 18:41 17.83700 -62.83377 24131 ft 453 kts 301°
2026-04-26 18:41 17.85510 -62.86093 24353 ft 455 kts 301°
2026-04-26 18:41 17.87328 -62.88822 24566 ft 456 kts 301°
2026-04-26 18:42 17.89131 -62.91530 24813 ft 457 kts 301°
2026-04-26 18:42 17.90974 -62.94299 25047 ft 458 kts 301°
2026-04-26 18:42 17.92800 -62.97043 25250 ft 460 kts 301°
2026-04-26 18:42 17.94613 -62.99768 25444 ft 461 kts 301°
2026-04-26 18:43 17.96474 -63.02566 25666 ft 462 kts 301°
2026-04-26 18:43 17.98319 -63.05340 25814 ft 465 kts 301°
2026-04-26 18:43 18.00180 -63.08143 25830 ft 470 kts 301°
2026-04-26 18:43 18.02032 -63.10933 25871 ft 474 kts 301°
2026-04-26 18:44 18.03922 -63.13780 25987 ft 475 kts 301°
2026-04-26 18:44 18.05819 -63.16640 26104 ft 477 kts 301°
2026-04-26 18:44 18.07719 -63.19503 26252 ft 477 kts 301°
2026-04-26 18:44 18.09618 -63.22365 26478 ft 476 kts 301°
2026-04-26 18:45 18.11505 -63.25211 26724 ft 474 kts 301°
2026-04-26 18:45 18.13389 -63.28055 26973 ft 473 kts 301°
2026-04-26 18:45 18.15271 -63.30896 27202 ft 472 kts 301°
2026-04-26 18:45 18.17144 -63.33727 27398 ft 472 kts 301°
2026-04-26 18:46 18.19016 -63.36558 27607 ft 472 kts 301°
2026-04-26 18:46 18.20888 -63.39390 27843 ft 471 kts 301°
2026-04-26 18:46 18.22757 -63.42217 28085 ft 470 kts 301°
2026-04-26 18:46 18.24620 -63.45037 28323 ft 469 kts 300°
2026-04-26 18:47 18.26479 -63.47850 28571 ft 468 kts 300°
2026-04-26 18:47 18.28336 -63.50664 28797 ft 468 kts 300°
2026-04-26 18:47 18.30188 -63.53471 29062 ft 466 kts 300°
2026-04-26 18:47 18.32010 -63.56235 29343 ft 464 kts 300°
2026-04-26 18:48 18.33874 -63.59065 29586 ft 464 kts 300°
2026-04-26 18:48 18.35689 -63.61820 29832 ft 463 kts 300°
2026-04-26 18:48 18.37548 -63.64643 30117 ft 462 kts 300°
2026-04-26 18:48 18.39327 -63.67400 30387 ft 459 kts 297°
2026-04-26 18:49 18.40947 -63.70287 30631 ft 457 kts 295°
2026-04-26 18:49 18.42479 -63.73209 30863 ft 456 kts 294°
2026-04-26 18:49 18.43987 -63.76161 31145 ft 455 kts 293°
2026-04-26 18:49 18.45481 -63.79095 31382 ft 454 kts 293°
2026-04-26 18:50 18.46981 -63.82024 31626 ft 455 kts 294°
2026-04-26 18:50 18.48495 -63.84956 31904 ft 453 kts 294°
2026-04-26 18:50 18.50005 -63.87862 32152 ft 453 kts 294°
2026-04-26 18:50 18.51523 -63.90771 32409 ft 452 kts 294°
2026-04-26 18:51 18.53022 -63.93638 32669 ft 451 kts 294°
2026-04-26 18:51 18.54551 -63.96560 32905 ft 450 kts 294°
2026-04-26 18:51 18.56066 -63.99457 33112 ft 451 kts 294°
2026-04-26 18:51 18.57576 -64.02346 33362 ft 450 kts 294°
2026-04-26 18:52 18.59083 -64.05231 33655 ft 448 kts 294°
2026-04-26 18:52 18.60562 -64.08062 33947 ft 446 kts 294°
2026-04-26 18:52 18.62059 -64.10930 34176 ft 446 kts 294°
2026-04-26 18:52 18.63549 -64.13785 34590 ft 439 kts 293°
2026-04-26 18:53 18.65003 -64.16567 35321 ft 427 kts 293°
2026-04-26 18:53 18.66430 -64.19305 35641 ft 425 kts 293°
2026-04-26 18:53 18.69293 -64.24814 35759 ft 431 kts 293°
2026-04-26 18:54 18.70736 -64.27589 35900 ft 432 kts 293°
2026-04-26 18:54 18.72161 -64.30331 36065 ft 432 kts 293°
2026-04-26 18:54 18.73607 -64.33114 36227 ft 432 kts 293°
2026-04-26 18:54 18.75052 -64.35895 36348 ft 434 kts 293°
2026-04-26 18:55 18.76504 -64.38691 36482 ft 435 kts 292°
2026-04-26 18:55 18.77956 -64.41489 36616 ft 435 kts 292°
2026-04-26 18:55 18.79400 -64.44268 37011 ft 428 kts 292°
2026-04-26 18:55 18.80823 -64.47005 37381 ft 423 kts 292°
2026-04-26 18:56 18.82234 -64.49723 37586 ft 421 kts 292°
2026-04-26 18:56 18.83634 -64.52427 37758 ft 420 kts 292°
2026-04-26 18:56 18.85035 -64.55135 37877 ft 420 kts 292°
2026-04-26 18:56 18.86431 -64.57833 37958 ft 418 kts 292°
2026-04-26 18:57 18.88294 -64.61436 37996 ft 418 kts 292°
2026-04-26 18:57 18.92012 -64.68634 38009 ft 420 kts 292°
2026-04-26 18:58 18.94820 -64.74073 38007 ft 422 kts 292°
2026-04-26 18:58 18.97638 -64.79538 38001 ft 424 kts 292°
2026-04-26 18:59 19.00445 -64.84981 37993 ft 424 kts 292°
2026-04-26 18:59 19.03269 -64.90460 37985 ft 424 kts 292°
2026-04-26 19:00 19.06085 -64.95931 37986 ft 423 kts 292°
2026-04-26 19:00 19.08891 -65.01388 37991 ft 421 kts 291°
2026-04-26 19:01 19.11213 -65.05910 37986 ft 420 kts 291°
2026-04-26 19:01 19.13995 -65.11331 37988 ft 418 kts 291°
2026-04-26 19:02 19.16759 -65.16721 37990 ft 416 kts 291°
2026-04-26 19:02 19.19046 -65.21184 37990 ft 415 kts 291°
2026-04-26 19:03 19.22259 -65.27464 37993 ft 414 kts 291°
2026-04-26 19:03 19.24995 -65.32817 37993 ft 414 kts 291°
2026-04-26 19:04 19.27739 -65.38187 37990 ft 414 kts 291°
2026-04-26 19:04 19.30462 -65.43520 37978 ft 415 kts 291°
2026-04-26 19:05 19.34581 -65.51595 37979 ft 415 kts 291°
2026-04-26 19:06 19.37328 -65.56982 37979 ft 416 kts 291°
2026-04-26 19:06 19.40072 -65.62378 37966 ft 416 kts 291°
2026-04-26 19:07 19.42818 -65.67779 37963 ft 416 kts 291°
2026-04-26 19:07 19.45562 -65.73182 37963 ft 417 kts 291°
2026-04-26 19:08 19.48294 -65.78565 37978 ft 417 kts 291°
2026-04-26 19:08 19.51039 -65.83975 37969 ft 416 kts 291°
2026-04-26 19:09 19.53779 -65.89384 37959 ft 416 kts 291°
2026-04-26 19:09 19.56511 -65.94786 37970 ft 416 kts 291°
2026-04-26 19:10 19.59245 -66.00192 37969 ft 415 kts 291°
2026-04-26 19:10 19.61956 -66.05558 37961 ft 414 kts 290°
2026-04-26 19:11 19.64677 -66.10949 37956 ft 414 kts 290°
2026-04-26 19:11 19.67398 -66.16344 37951 ft 415 kts 290°
2026-04-26 19:12 19.70118 -66.21746 37949 ft 414 kts 290°
2026-04-26 19:12 19.72834 -66.27141 37955 ft 414 kts 290°
2026-04-26 19:13 19.75547 -66.32537 37953 ft 414 kts 290°
2026-04-26 19:13 19.78259 -66.37933 37955 ft 413 kts 290°
2026-04-26 19:14 19.80964 -66.43325 37957 ft 414 kts 290°
2026-04-26 19:14 19.83649 -66.48681 37961 ft 414 kts 290°
2026-04-26 19:15 19.86355 -66.54084 37949 ft 414 kts 290°
2026-04-26 19:15 19.89076 -66.59516 37951 ft 414 kts 290°
2026-04-26 19:16 19.91763 -66.64892 37960 ft 414 kts 290°
2026-04-26 19:16 19.94469 -66.70314 37955 ft 414 kts 290°
2026-04-26 19:17 19.97174 -66.75734 37950 ft 415 kts 290°
2026-04-26 19:17 20.00058 -66.81075 37946 ft 424 kts 299°
2026-04-26 19:18 20.03737 -66.86014 37955 ft 426 kts 300°
2026-04-26 19:18 20.07429 -66.90927 37954 ft 425 kts 300°
2026-04-26 19:19 20.11076 -66.95830 37969 ft 424 kts 299°
2026-04-26 19:19 20.14719 -67.00752 37955 ft 422 kts 299°
2026-04-26 19:20 20.18343 -67.05659 37958 ft 421 kts 299°
2026-04-26 19:20 20.21956 -67.10555 37965 ft 420 kts 299°
2026-04-26 19:21 20.25558 -67.15441 37970 ft 419 kts 299°
2026-04-26 19:21 20.29146 -67.20311 37977 ft 417 kts 299°
2026-04-26 19:22 20.32725 -67.25173 37971 ft 417 kts 299°
2026-04-26 19:22 20.36278 -67.30007 37978 ft 417 kts 299°
2026-04-26 19:23 20.39853 -67.34869 37976 ft 417 kts 299°
2026-04-26 19:23 20.43431 -67.39736 37981 ft 417 kts 299°
2026-04-26 19:24 20.47021 -67.44624 37978 ft 418 kts 299°
2026-04-26 19:24 20.52414 -67.51978 37979 ft 419 kts 299°
2026-04-26 19:25 20.55400 -67.56053 37968 ft 420 kts 299°
2026-04-26 19:25 20.59584 -67.61766 37963 ft 420 kts 298°
2026-04-26 19:26 20.63187 -67.66693 37968 ft 421 kts 298°
2026-04-26 19:26 20.66790 -67.71624 37978 ft 421 kts 298°
2026-04-26 19:27 20.70393 -67.76557 37980 ft 421 kts 298°
2026-04-26 19:27 20.73997 -67.81496 37967 ft 421 kts 298°
2026-04-26 19:28 20.77571 -67.86402 37956 ft 420 kts 298°
2026-04-26 19:28 20.81170 -67.91344 37949 ft 420 kts 298°
2026-04-26 19:29 20.84755 -67.96272 37952 ft 419 kts 298°
2026-04-26 19:29 20.88348 -68.01182 37951 ft 419 kts 299°
2026-04-26 19:30 20.91980 -68.06058 37952 ft 419 kts 299°
2026-04-26 19:30 20.94996 -68.10104 37954 ft 418 kts 298°
2026-04-26 19:31 20.99200 -68.15757 37951 ft 417 kts 298°
2026-04-26 19:31 21.02804 -68.20618 37953 ft 416 kts 298°
2026-04-26 19:32 21.06398 -68.25473 37952 ft 416 kts 298°
2026-04-26 19:32 21.09988 -68.30325 37948 ft 415 kts 298°
2026-04-26 19:33 21.13567 -68.35168 37954 ft 414 kts 298°
2026-04-26 19:33 21.17141 -68.40005 37956 ft 414 kts 298°
2026-04-26 19:34 21.20710 -68.44840 37950 ft 413 kts 298°
2026-04-26 19:34 21.24276 -68.49675 37960 ft 413 kts 298°
2026-04-26 19:35 21.27840 -68.54510 37947 ft 413 kts 298°
2026-04-26 19:35 21.31379 -68.59319 37949 ft 413 kts 298°
2026-04-26 19:36 21.34341 -68.63348 37951 ft 413 kts 298°
2026-04-26 19:36 21.38500 -68.69009 37956 ft 413 kts 298°
2026-04-26 19:37 21.42064 -68.73863 37970 ft 413 kts 298°
2026-04-26 19:37 21.45625 -68.78718 37970 ft 413 kts 298°
2026-04-26 19:38 21.49180 -68.83567 37959 ft 413 kts 298°
2026-04-26 19:38 21.52709 -68.88387 37970 ft 413 kts 298°
2026-04-26 19:39 21.56259 -68.93241 37984 ft 414 kts 298°
2026-04-26 19:39 21.59820 -68.98111 37978 ft 414 kts 298°
2026-04-26 19:40 21.63376 -69.02979 37982 ft 414 kts 298°
2026-04-26 19:40 21.66935 -69.07856 37981 ft 414 kts 298°
2026-04-26 19:41 21.70487 -69.12730 37983 ft 414 kts 298°
2026-04-26 19:41 21.72839 -69.15958 37981 ft 413 kts 298°
2026-04-26 19:42 21.77581 -69.22474 37983 ft 413 kts 298°
2026-04-26 19:42 21.81091 -69.27302 37982 ft 412 kts 297°
2026-04-26 19:43 21.84629 -69.32172 37991 ft 411 kts 297°
2026-04-26 19:43 21.88150 -69.37022 37992 ft 410 kts 297°
2026-04-26 19:44 21.91662 -69.41864 37990 ft 410 kts 297°
2026-04-26 19:44 21.95165 -69.46702 37989 ft 409 kts 297°
2026-04-26 19:45 21.98664 -69.51537 37978 ft 409 kts 297°
2026-04-26 19:45 22.02156 -69.56365 37975 ft 409 kts 297°
2026-04-26 19:46 22.05631 -69.61175 37980 ft 408 kts 297°
2026-04-26 19:46 22.09116 -69.66004 37980 ft 408 kts 297°
2026-04-26 19:47 22.11445 -69.69233 37980 ft 408 kts 297°
2026-04-26 19:47 22.16087 -69.75677 37980 ft 408 kts 297°
2026-04-26 19:48 22.19549 -69.80485 37983 ft 408 kts 297°
2026-04-26 19:48 22.23030 -69.85325 37984 ft 408 kts 297°
2026-04-26 19:49 22.25939 -69.89351 37981 ft 409 kts 297°
2026-04-26 19:49 22.29461 -69.94187 37981 ft 409 kts 297°
2026-04-26 19:50 22.32972 -69.99023 37988 ft 408 kts 297°
2026-04-26 19:50 22.36451 -70.03873 37980 ft 409 kts 297°
2026-04-26 19:51 22.39927 -70.08737 37961 ft 409 kts 297°
2026-04-26 19:51 22.43403 -70.13600 37986 ft 408 kts 297°
2026-04-26 19:52 22.46875 -70.18460 37984 ft 408 kts 297°
2026-04-26 19:52 22.50351 -70.23330 37979 ft 408 kts 297°
2026-04-26 19:53 22.53800 -70.28167 37984 ft 409 kts 297°
2026-04-26 19:53 22.57272 -70.33040 37984 ft 409 kts 297°
2026-04-26 19:54 22.60740 -70.37914 37982 ft 409 kts 298°
2026-04-26 19:54 22.64214 -70.42795 37977 ft 409 kts 298°
2026-04-26 19:55 22.67681 -70.47674 37983 ft 409 kts 298°
2026-04-26 19:55 22.71128 -70.52531 37981 ft 409 kts 298°
2026-04-26 19:56 22.74596 -70.57421 37989 ft 409 kts 298°
2026-04-26 19:56 22.78063 -70.62316 37982 ft 409 kts 298°
2026-04-26 19:57 22.81526 -70.67204 37985 ft 409 kts 298°
2026-04-26 19:57 22.84990 -70.72102 37980 ft 409 kts 298°
2026-04-26 19:58 22.88453 -70.77005 37983 ft 409 kts 298°
2026-04-26 19:58 22.91917 -70.81912 37981 ft 409 kts 298°
2026-04-26 19:59 22.95376 -70.86816 37985 ft 409 kts 298°
2026-04-26 19:59 22.98833 -70.91726 37982 ft 409 kts 298°
2026-04-26 20:00 23.02264 -70.96604 37983 ft 409 kts 298°
2026-04-26 20:00 23.05719 -71.01521 37980 ft 410 kts 298°
2026-04-26 20:01 23.09172 -71.06439 37987 ft 410 kts 298°
2026-04-26 20:01 23.12631 -71.11372 37979 ft 410 kts 298°
2026-04-26 20:02 23.16084 -71.16301 37981 ft 410 kts 299°
2026-04-26 20:02 23.18959 -71.20409 37984 ft 411 kts 298°
2026-04-26 20:03 23.23009 -71.26199 37980 ft 411 kts 299°
2026-04-26 20:03 23.26471 -71.31153 37981 ft 412 kts 299°
2026-04-26 20:04 23.29914 -71.36084 37986 ft 412 kts 299°
2026-04-26 20:04 23.33404 -71.41090 37984 ft 413 kts 299°
2026-04-26 20:05 23.36873 -71.46071 37981 ft 413 kts 299°
2026-04-26 20:05 23.40350 -71.51065 37981 ft 413 kts 300°
2026-04-26 20:06 23.43796 -71.56022 37984 ft 413 kts 300°
2026-04-26 20:06 23.47268 -71.61021 37983 ft 414 kts 300°
2026-04-26 20:07 23.50742 -71.66029 37966 ft 414 kts 300°
2026-04-26 20:07 23.54216 -71.71042 37962 ft 414 kts 300°
2026-04-26 20:08 23.57692 -71.76060 37969 ft 415 kts 300°
2026-04-26 20:08 23.61142 -71.81094 37957 ft 412 kts 297°
2026-04-26 20:09 23.64150 -71.86388 37957 ft 410 kts 295°
2026-04-26 20:09 23.67062 -71.91689 37960 ft 410 kts 295°
2026-04-26 20:10 23.70015 -71.97034 37967 ft 411 kts 295°
2026-04-26 20:10 23.72975 -72.02365 37968 ft 411 kts 295°
2026-04-26 20:11 23.75941 -72.07703 37956 ft 412 kts 295°
2026-04-26 20:12 23.80395 -72.15729 37959 ft 412 kts 295°
2026-04-26 20:12 23.83368 -72.21093 37961 ft 413 kts 295°
2026-04-26 20:13 23.86323 -72.26431 37968 ft 413 kts 295°
2026-04-26 20:13 23.89294 -72.31803 37958 ft 413 kts 295°
2026-04-26 20:14 23.92264 -72.37181 37956 ft 413 kts 295°
2026-04-26 20:14 23.95238 -72.42563 37969 ft 413 kts 295°
2026-04-26 20:15 23.98211 -72.47951 37955 ft 413 kts 295°
2026-04-26 20:15 24.01174 -72.53327 37960 ft 412 kts 295°
2026-04-26 20:16 24.04125 -72.58686 37957 ft 411 kts 295°
2026-04-26 20:16 24.07058 -72.64019 37966 ft 411 kts 295°
2026-04-26 20:17 24.10001 -72.69377 37958 ft 411 kts 295°
2026-04-26 20:17 24.12945 -72.74742 37973 ft 411 kts 295°
2026-04-26 20:18 24.15889 -72.80113 37963 ft 411 kts 295°
2026-04-26 20:18 24.18829 -72.85482 37959 ft 411 kts 295°
2026-04-26 20:19 24.21772 -72.90866 37960 ft 412 kts 295°
2026-04-26 20:19 24.24718 -72.96259 37967 ft 413 kts 295°
2026-04-26 20:20 24.27672 -73.01672 37956 ft 414 kts 296°
2026-04-26 20:20 24.30609 -73.07063 37963 ft 414 kts 296°
2026-04-26 20:21 24.33563 -73.12488 37979 ft 415 kts 295°
2026-04-26 20:21 24.36522 -73.17929 37970 ft 415 kts 296°
2026-04-26 20:22 24.39478 -73.23370 37978 ft 415 kts 296°
2026-04-26 20:22 24.42429 -73.28808 37970 ft 414 kts 296°
2026-04-26 20:23 24.45377 -73.34249 37972 ft 414 kts 296°
2026-04-26 20:23 24.48323 -73.39690 37976 ft 414 kts 296°
2026-04-26 20:24 24.51248 -73.45100 37979 ft 414 kts 296°
2026-04-26 20:24 24.54187 -73.50539 37965 ft 414 kts 295°
2026-04-26 20:25 24.56366 -73.56275 37981 ft 404 kts 281°
2026-04-26 20:25 24.57118 -73.62341 37986 ft 399 kts 271°
2026-04-26 20:26 24.57387 -73.68431 37963 ft 399 kts 270°
2026-04-26 20:26 24.57655 -73.74525 37976 ft 399 kts 271°
2026-04-26 20:27 24.57938 -73.80617 37972 ft 400 kts 271°
2026-04-26 20:27 24.58226 -73.86688 37975 ft 400 kts 271°
2026-04-26 20:28 24.58514 -73.92791 37978 ft 400 kts 271°
2026-04-26 20:28 24.58800 -73.98914 37978 ft 401 kts 271°
2026-04-26 20:29 24.59086 -74.05041 37969 ft 402 kts 271°
2026-04-26 20:29 24.59369 -74.11186 37977 ft 403 kts 271°
2026-04-26 20:30 24.59650 -74.17334 37976 ft 403 kts 271°
2026-04-26 20:30 24.59928 -74.23486 37977 ft 403 kts 271°
2026-04-26 20:31 24.60202 -74.29617 37972 ft 404 kts 271°
2026-04-26 20:31 24.60477 -74.35779 37968 ft 404 kts 271°
2026-04-26 20:32 24.60749 -74.41952 37978 ft 404 kts 271°
2026-04-26 20:32 24.61017 -74.48118 37978 ft 404 kts 271°
2026-04-26 20:33 24.61284 -74.54285 37969 ft 404 kts 271°
2026-04-26 20:33 24.61546 -74.60411 37980 ft 404 kts 270°
2026-04-26 20:34 24.61808 -74.66582 37960 ft 404 kts 271°
2026-04-26 20:34 24.62067 -74.72743 37978 ft 404 kts 270°
2026-04-26 20:35 24.62323 -74.78911 37964 ft 404 kts 270°
2026-04-26 20:35 24.62577 -74.85077 37978 ft 404 kts 270°
2026-04-26 20:36 24.62828 -74.91234 37973 ft 403 kts 270°
2026-04-26 20:36 24.63077 -74.97399 37965 ft 403 kts 270°
2026-04-26 20:37 24.63323 -75.03566 37975 ft 403 kts 270°
2026-04-26 20:37 24.63567 -75.09719 37978 ft 403 kts 270°
2026-04-26 20:38 24.63806 -75.15848 37977 ft 403 kts 270°
2026-04-26 20:38 24.64005 -75.21006 37974 ft 403 kts 270°
2026-04-26 20:39 24.64241 -75.27134 37978 ft 403 kts 270°
2026-04-26 20:39 24.64474 -75.33291 37981 ft 403 kts 270°
2026-04-26 20:40 24.64706 -75.39456 37968 ft 404 kts 270°
2026-04-26 20:40 24.64935 -75.45621 37972 ft 404 kts 270°
2026-04-26 20:41 24.65161 -75.51752 37978 ft 404 kts 270°
2026-04-26 20:41 24.65387 -75.57926 37977 ft 404 kts 270°
2026-04-26 20:42 24.65609 -75.64102 37963 ft 404 kts 270°
2026-04-26 20:42 24.66377 -75.70209 37987 ft 406 kts 281°
2026-04-26 20:43 24.67698 -75.76242 37983 ft 406 kts 281°
2026-04-26 20:43 24.69005 -75.82284 37976 ft 406 kts 280°
2026-04-26 20:44 24.70292 -75.88321 37972 ft 405 kts 280°
2026-04-26 20:44 24.71570 -75.94358 37970 ft 405 kts 280°
2026-04-26 20:45 24.72837 -76.00363 37979 ft 405 kts 280°
2026-04-26 20:45 24.74100 -76.06396 37962 ft 404 kts 279°
2026-04-26 20:46 24.74255 -76.12523 37977 ft 401 kts 263°
2026-04-26 20:46 24.72993 -76.18492 37982 ft 401 kts 254°
2026-04-26 20:47 24.71387 -76.24389 37981 ft 402 kts 254°
2026-04-26 20:47 24.69783 -76.30295 37980 ft 403 kts 254°
2026-04-26 20:48 24.68192 -76.36214 37977 ft 404 kts 254°
2026-04-26 20:48 24.66606 -76.42141 37975 ft 404 kts 254°
2026-04-26 20:49 24.65029 -76.48029 37972 ft 404 kts 254°
2026-04-26 20:49 24.63441 -76.53953 37978 ft 404 kts 254°
2026-04-26 20:50 24.61852 -76.59874 37969 ft 404 kts 254°
2026-04-26 20:50 24.60260 -76.65791 37979 ft 404 kts 255°
2026-04-26 20:51 24.58662 -76.71716 37978 ft 404 kts 255°
2026-04-26 20:51 24.57065 -76.77633 37964 ft 404 kts 255°
2026-04-26 20:52 24.55465 -76.83552 37979 ft 404 kts 255°
2026-04-26 20:52 24.53873 -76.89426 37974 ft 404 kts 255°
2026-04-26 20:53 24.52267 -76.95341 37963 ft 404 kts 255°
2026-04-26 20:53 24.50659 -77.01261 37972 ft 404 kts 255°
2026-04-26 20:54 24.49047 -77.07183 37979 ft 404 kts 255°
2026-04-26 20:54 24.47433 -77.13100 37978 ft 405 kts 255°
2026-04-26 20:55 24.45818 -77.19014 37972 ft 405 kts 255°
2026-04-26 20:55 24.44197 -77.24937 37964 ft 405 kts 255°
2026-04-26 20:56 24.42574 -77.30861 37966 ft 405 kts 255°
2026-04-26 20:56 24.40957 -77.36748 37962 ft 405 kts 255°
2026-04-26 20:57 24.39329 -77.42669 37960 ft 405 kts 255°
2026-04-26 20:57 24.37700 -77.48584 37961 ft 405 kts 255°
2026-04-26 20:58 24.36066 -77.54500 37965 ft 405 kts 255°
2026-04-26 20:58 24.34433 -77.60411 37961 ft 404 kts 255°
2026-04-26 20:59 24.32810 -77.66279 37969 ft 404 kts 255°
2026-04-26 20:59 24.31176 -77.72174 37957 ft 404 kts 255°
2026-04-26 21:00 24.29531 -77.78100 37965 ft 403 kts 255°
2026-04-26 21:00 24.28059 -77.84023 37946 ft 401 kts 266°
2026-04-26 21:00 24.28175 -77.87057 37980 ft 400 kts 278°
2026-04-26 21:01 24.28860 -77.90017 37963 ft 402 kts 289°
2026-04-26 21:01 24.31689 -77.95304 37966 ft 407 kts 300°
2026-04-26 21:02 24.34918 -78.00415 37965 ft 408 kts 301°
2026-04-26 21:02 24.38138 -78.05539 37965 ft 408 kts 301°
2026-04-26 21:03 24.41324 -78.10692 37961 ft 409 kts 300°
2026-04-26 21:03 24.44513 -78.15891 37634 ft 413 kts 301°
2026-04-26 21:03 24.46116 -78.18508 37394 ft 411 kts 301°
2026-04-26 21:04 24.47702 -78.21099 37140 ft 407 kts 301°
2026-04-26 21:04 24.49280 -78.23677 36888 ft 406 kts 301°
2026-04-26 21:04 24.50857 -78.26256 36648 ft 408 kts 301°
2026-04-26 21:04 24.52438 -78.28844 36402 ft 409 kts 301°
2026-04-26 21:05 24.54023 -78.31439 36156 ft 409 kts 301°
2026-04-26 21:05 24.55610 -78.34041 35906 ft 411 kts 301°
2026-04-26 21:05 24.57206 -78.36656 35657 ft 413 kts 301°
2026-04-26 21:05 24.58810 -78.39286 35411 ft 415 kts 302°
2026-04-26 21:06 24.60418 -78.41925 35168 ft 418 kts 302°
2026-04-26 21:06 24.62043 -78.44593 34925 ft 421 kts 302°
2026-04-26 21:06 24.63678 -78.47277 34679 ft 423 kts 302°
2026-04-26 21:06 24.65321 -78.49978 34431 ft 425 kts 302°
2026-04-26 21:07 24.66972 -78.52692 34186 ft 427 kts 302°
2026-04-26 21:07 24.68625 -78.55411 33936 ft 428 kts 302°
2026-04-26 21:07 24.70281 -78.58139 33687 ft 429 kts 303°
2026-04-26 21:07 24.71921 -78.60839 33438 ft 431 kts 304°
2026-04-26 21:08 24.73586 -78.63585 33195 ft 432 kts 304°
2026-04-26 21:08 24.75260 -78.66344 32942 ft 434 kts 304°
2026-04-26 21:08 24.76943 -78.69121 32694 ft 435 kts 304°
2026-04-26 21:08 24.78627 -78.71899 32451 ft 436 kts 304°
2026-04-26 21:09 24.80308 -78.74675 32198 ft 437 kts 304°
2026-04-26 21:09 24.81997 -78.77465 31954 ft 437 kts 304°
2026-04-26 21:09 24.83689 -78.80263 31703 ft 438 kts 304°
2026-04-26 21:09 24.85352 -78.83013 31458 ft 437 kts 304°
2026-04-26 21:10 24.87037 -78.85805 31203 ft 435 kts 304°
2026-04-26 21:10 24.88706 -78.88571 30952 ft 434 kts 304°
2026-04-26 21:10 24.90372 -78.91333 30702 ft 431 kts 304°
2026-04-26 21:10 24.92028 -78.94081 30409 ft 427 kts 304°
2026-04-26 21:11 24.93647 -78.96769 29951 ft 415 kts 304°
2026-04-26 21:11 24.95231 -78.99400 29467 ft 411 kts 304°
2026-04-26 21:11 24.96805 -79.02014 28978 ft 407 kts 304°
2026-04-26 21:11 24.98374 -79.04621 28472 ft 408 kts 304°
2026-04-26 21:12 24.99935 -79.07216 27975 ft 412 kts 304°
2026-04-26 21:12 25.01529 -79.09868 27443 ft 409 kts 304°
2026-04-26 21:12 25.03074 -79.12442 26909 ft 405 kts 304°
2026-04-26 21:12 25.04631 -79.15036 26302 ft 404 kts 304°
2026-04-26 21:13 25.06176 -79.17609 25797 ft 401 kts 304°
2026-04-26 21:13 25.07704 -79.20159 25285 ft 395 kts 304°
2026-04-26 21:13 25.09215 -79.22680 24797 ft 392 kts 303°
2026-04-26 21:13 25.10712 -79.25178 24309 ft 389 kts 303°
2026-04-26 21:14 25.12200 -79.27665 23829 ft 385 kts 303°
2026-04-26 21:14 25.13670 -79.30122 23354 ft 382 kts 303°
2026-04-26 21:14 25.15128 -79.32560 22877 ft 379 kts 303°
2026-04-26 21:14 25.16555 -79.34948 22415 ft 376 kts 303°
2026-04-26 21:15 25.17992 -79.37353 21948 ft 373 kts 303°
2026-04-26 21:15 25.19410 -79.39727 21713 ft 366 kts 303°
2026-04-26 21:15 25.20799 -79.42054 21302 ft 363 kts 303°
2026-04-26 21:15 25.22186 -79.44377 20864 ft 363 kts 303°
2026-04-26 21:16 25.23578 -79.46712 20406 ft 365 kts 303°
2026-04-26 21:16 25.24970 -79.49048 19957 ft 363 kts 303°
2026-04-26 21:16 25.26351 -79.51366 19522 ft 360 kts 303°
2026-04-26 21:16 25.27724 -79.53673 19060 ft 358 kts 303°
2026-04-26 21:17 25.29084 -79.55959 18645 ft 353 kts 303°
2026-04-26 21:17 25.30428 -79.58224 18217 ft 352 kts 303°
2026-04-26 21:17 25.31769 -79.60475 17795 ft 349 kts 303°
2026-04-26 21:17 25.33108 -79.62719 17362 ft 350 kts 303°
2026-04-26 21:18 25.34443 -79.64970 16927 ft 349 kts 303°
2026-04-26 21:18 25.35772 -79.67212 16540 ft 346 kts 303°
2026-04-26 21:18 25.37083 -79.69423 16143 ft 343 kts 303°
2026-04-26 21:18 25.38383 -79.71615 15731 ft 340 kts 303°
2026-04-26 21:19 25.39692 -79.73780 15314 ft 338 kts 304°
2026-04-26 21:19 25.41050 -79.75896 14892 ft 336 kts 306°
2026-04-26 21:19 25.42410 -79.77984 14477 ft 334 kts 306°
2026-04-26 21:19 25.43763 -79.80066 14062 ft 331 kts 305°
2026-04-26 21:20 25.45097 -79.82133 13666 ft 329 kts 305°
2026-04-26 21:20 25.46402 -79.84165 13265 ft 327 kts 305°
2026-04-26 21:20 25.47713 -79.86208 12869 ft 324 kts 305°
2026-04-26 21:20 25.49011 -79.88236 12477 ft 321 kts 305°
2026-04-26 21:21 25.50307 -79.90254 12078 ft 321 kts 305°
2026-04-26 21:21 25.51597 -79.92271 11686 ft 320 kts 305°
2026-04-26 21:21 25.52883 -79.94281 11287 ft 320 kts 305°
2026-04-26 21:21 25.54162 -79.96284 10981 ft 314 kts 304°
2026-04-26 21:22 25.55393 -79.98226 10861 ft 304 kts 304°
2026-04-26 21:22 25.56591 -80.00101 10732 ft 292 kts 304°
2026-04-26 21:22 25.57732 -80.01913 10604 ft 284 kts 304°
2026-04-26 21:23 25.59569 -80.05703 10175 ft 278 kts 277°
2026-04-26 21:23 25.59675 -80.07809 10084 ft 271 kts 272°
2026-04-26 21:23 25.59723 -80.09871 9933 ft 266 kts 272°
2026-04-26 21:23 25.59768 -80.11921 9767 ft 266 kts 271°
2026-04-26 21:24 25.59813 -80.13949 9617 ft 266 kts 271°
2026-04-26 21:24 25.59864 -80.16020 9342 ft 272 kts 272°
2026-04-26 21:24 25.59943 -80.18148 8981 ft 279 kts 272°
2026-04-26 21:24 25.60034 -80.20308 8615 ft 281 kts 272°
2026-04-26 21:25 25.60096 -80.21740 8366 ft 283 kts 272°
2026-04-26 21:25 25.60210 -80.23918 8021 ft 282 kts 273°
2026-04-26 21:25 25.60356 -80.26832 7538 ft 289 kts 273°
2026-04-26 21:25 25.60429 -80.28324 7276 ft 285 kts 272°
2026-04-26 21:26 25.60524 -80.30501 6871 ft 280 kts 272°
2026-04-26 21:26 25.60633 -80.32652 6502 ft 278 kts 273°
2026-04-26 21:26 25.60758 -80.34748 6124 ft 273 kts 273°
2026-04-26 21:26 25.60865 -80.36831 5728 ft 270 kts 273°
2026-04-26 21:27 25.60975 -80.38921 5349 ft 269 kts 273°
2026-04-26 21:27 25.61086 -80.40967 5037 ft 268 kts 273°
2026-04-26 21:27 25.61195 -80.42977 4983 ft 255 kts 273°
2026-04-26 21:27 25.61300 -80.44898 4965 ft 243 kts 273°
2026-04-26 21:28 25.61399 -80.46729 4833 ft 236 kts 272°
2026-04-26 21:28 25.61503 -80.48556 4568 ft 237 kts 273°
2026-04-26 21:28 25.61607 -80.50374 4299 ft 236 kts 273°
2026-04-26 21:28 25.61761 -80.52173 4031 ft 233 kts 283°
2026-04-26 21:29 25.62535 -80.53709 3713 ft 229 kts 316°
2026-04-26 21:29 25.63926 -80.54533 3399 ft 230 kts 349°
2026-04-26 21:29 25.65502 -80.54722 3126 ft 227 kts 353°
2026-04-26 21:29 25.67068 -80.54913 3044 ft 226 kts 353°
2026-04-26 21:30 25.68628 -80.55089 3003 ft 221 kts 353°
2026-04-26 21:30 25.70101 -80.55264 2982 ft 206 kts 353°
2026-04-26 21:30 25.71502 -80.55428 2998 ft 201 kts 353°
2026-04-26 21:30 25.72907 -80.55594 3016 ft 205 kts 353°
2026-04-26 21:31 25.74326 -80.55763 3023 ft 210 kts 353°
2026-04-26 21:31 25.75772 -80.55747 2995 ft 208 kts 18°
2026-04-26 21:31 25.76944 -80.54888 3026 ft 203 kts 49°
2026-04-26 21:31 25.77849 -80.53659 3034 ft 208 kts 52°
2026-04-26 21:32 25.78742 -80.52387 3027 ft 209 kts 52°
2026-04-26 21:32 25.79494 -80.51026 2995 ft 206 kts 78°
2026-04-26 21:32 25.79441 -80.49479 3040 ft 201 kts 102°
2026-04-26 21:32 25.79366 -80.47946 3019 ft 197 kts 86°
2026-04-26 21:33 25.79449 -80.46428 2852 ft 197 kts 90°
2026-04-26 21:33 25.79484 -80.44911 2587 ft 195 kts 90°
2026-04-26 21:33 25.79534 -80.43440 2340 ft 186 kts 90°
2026-04-26 21:33 25.79588 -80.42050 2097 ft 175 kts 89°
2026-04-26 21:34 25.79641 -80.40733 1875 ft 166 kts 89°
2026-04-26 21:34 25.79692 -80.39448 1673 ft 170 kts 89°
2026-04-26 21:34 25.79748 -80.38128 1441 ft 172 kts 88°
2026-04-26 21:34 25.79798 -80.36804 1207 ft 171 kts 88°
2026-04-26 21:35 25.79852 -80.35493 988 ft 170 kts 88°
2026-04-26 21:35 25.79905 -80.34200 756 ft 169 kts 88°
2026-04-26 21:35 25.79958 -80.32880 567 ft 165 kts 88°
2026-04-26 21:35 25.80009 -80.31630 350 ft 164 kts 87°
2026-04-26 21:36 25.80067 -80.30342 82 ft 170 kts 86°
2026-04-26 21:36 25.80104 -80.29134 16 ft 139 kts 81°
2026-04-26 21:36 25.80146 -80.28214 14 ft 94 kts 88°
2026-04-26 21:36 25.80164 -80.27715 15 ft 43 kts 90°
2026-04-26 21:37 25.80118 -80.27587 14 ft 13 kts 132°
2026-04-26 21:37 25.80114 -80.27582 14 ft 0 kts 133°
2026-04-26 21:37 25.80113 -80.27581 14 ft 1 kts 130°
2026-04-26 21:38 25.80109 -80.27570 14 ft 2 kts 109°
2026-04-26 21:38 25.80107 -80.27542 14 ft 5 kts 94°
2026-04-26 21:38 25.80105 -80.27531 14 ft 0 kts 104°
2026-04-26 21:39 25.80104 -80.27529 14 ft 0 kts 105°
2026-04-26 21:39 25.80101 -80.27521 14 ft 4 kts 116°
2026-04-26 21:39 25.80074 -80.27476 16 ft 10 kts 109°
2026-04-26 21:39 25.80074 -80.27386 15 ft 14 kts 86°
2026-04-26 21:40 25.80081 -80.27264 15 ft 18 kts 87°
2026-04-26 21:40 25.80074 -80.27118 15 ft 20 kts 128°
2026-04-26 21:40 25.79982 -80.27057 16 ft 15 kts 135°
2026-04-26 21:40 25.79911 -80.26986 14 ft 14 kts 182°
2026-04-26 21:41 25.79823 -80.27027 14 ft 13 kts 219°
2026-04-26 21:41 25.79755 -80.27094 15 ft 13 kts 221°
2026-04-26 21:41 25.79737 -80.27178 16 ft 8 kts 290°
2026-04-26 21:41 25.79769 -80.27196 16 ft 4 kts 352°
2026-04-26 21:42 25.79785 -80.27198 14 ft 0 kts 356°